User: anonymous   Login
Location: Tauranga
(37.6860°S, 176.1670°E)
Time: 10:24:29
(UTC+13:00)
Language:

BREEZE-M DEB (TANK) - Orbit

View from above orbital plane
View from above orbital plane
View from above satellite
View from above satellite

Ground track
Ground track

The orbit data is extracted from the following two-line orbital elements,

1 34712U 09016C   19076.21608150  .00002065  00000-0  25014-3 0  9997
2 34712  46.0528 149.5324 5074556 315.4792  13.4896  5.52074304195629
Epoch (UTC): 17 March 2019 05:11:09
Eccentricity: 0.5074556
inclination: 46.0528°
perigee height: 282 km
apogee height: 14007 km
right ascension of ascending node: 149.5324°
argument of perigee: 315.4792°
revolutions per day: 5.52074304
mean anomaly at epoch: 13.4896°
orbit number at epoch: 19562

The dashed part of the orbit path shows where the satellite is in the earth's shadow,  

DLR